Regional Weather Roundup
Issued by NWS

Home | Current Version | Previous Version | Graphics & Text | Print | Product List | Glossary On
Versions: 1 2 3 4 5 6 7 8 9 10 11 12 13 14 15 16 17 18 19 20 21 22 23 24 25 26 27 28 29 30 31 32 33 34 35 36 37 38 39 40 41 42 43 44 45 46 47 48 49 50
000
ASUS43 KMKX 070411
RWRWI

WISCONSIN REGIONAL WEATHER ROUNDUP
NATIONAL WEATHER SERVICE MILWAUKEE/SULLIVAN WI
1100 PM CDT WED MAY 06 2015

NOTE: "FAIR" INDICATES FEW OR NO CLOUDS BELOW 12,000 FEET WITH NO
SIGNIFICANT WEATHER AND/OR OBSTRUCTIONS TO VISIBILITY.

WIZ001-002-006>008-014>016-023>028-070500-
NORTHWEST WISCONSIN

CITY           SKY/WX    TMP DP  RH WIND       PRES   REMARKS
SUPERIOR ARPT  MOCLDY    42  36  78 NE8       29.94F
ASHLAND        LGT RAIN  49  46  90 CALM      29.97S
HAYWARD        CLOUDY    64  60  87 SE9       29.95F
SIREN          CLOUDY    67  58  72 S12G20    29.90F
CUMBERLAND     CLOUDY    61  59  94 SE12G17   29.94S
RICE LAKE      CLOUDY    62  58  88 SE9       29.95F
CHETEK         LGT RAIN  62  60  95 E8        29.95S
LADYSMITH      LGT RAIN  63  60  93 SE7       30.01F
EAU CLAIRE     CLOUDY    63  60  90 SE8       29.95S
MENOMONIE      CLOUDY    63  61  93 SE8       29.94S
NEW RICHMOND   CLOUDY    64  58  81 SE9       29.90F
OSCEOLA        MOCLDY    65  60  82 SE10      29.91F
$$

WIZ003>005-009-010-017-018-070500-
NORTH CENTRAL WISCONSIN

CITY           SKY/WX    TMP DP  RH WIND       PRES   REMARKS
MANITOWISH WTR MOCLDY    62  57  85 SE7       30.02F
ARBOR VITAE    MOCLDY    62  55  79 SE6       30.03F
WOODRUFF       MOCLDY    62  55  79 SE6       30.03F
RHINELANDER    MOCLDY    60  54  80 SE8       30.05F
EAGLE RIVER    MOCLDY    59  52  77 SE5       30.05S
LAND O LAKES   PTCLDY    60  53  76 SE6       30.06S
PHILLIPS       LGT RAIN  64  57  80 S10       30.02R
TOMAHAWK       MOCLDY    59  55  88 SE5       30.04S
MEDFORD        LGT RAIN  63  58  84 SE6       30.03F
MERRILL        MOCLDY   N/A N/A N/A SE12      30.05S
$$

WIZ029-030-035-036-043>047-070500-
CENTRAL WISCONSIN

CITY           SKY/WX    TMP DP  RH WIND       PRES   REMARKS
WAUSAU         PTCLDY    61  57  87 E8        30.02F
MOSINEE        PTCLDY    61  57  88 E9        30.04S
MARSHFIELD     CLOUDY    65  58  78 SE7       30.03R
STEVENS POINT  MOCLDY    60  55  84 E8        30.04S
WAUPACA        PTCLDY    60  55  84 E3        30.05S
WAUTOMA        PTCLDY    62  58  87 CALM      30.04S
WISC RAPIDS    PTCLDY    63  56  78 SE6       30.04R
CAMP DOUGLAS   MOCLDY    63  63 100 E8        30.00S
$$

WIZ011>013-019>022-031-037>040-048>050-070500-
NORTHEAST WISCONSIN

CITY           SKY/WX    TMP DP  RH WIND       PRES   REMARKS
ANTIGO         PTCLDY    56  54  92 SE14      30.06F
SHAWANO        PTCLDY    57  54  88 E6        30.07F
OCONTO         MOCLDY    51  44  76 CALM      30.09S
STURGEON BAY   MOCLDY    48  36  61 E7        30.11F
GREEN BAY      CLEAR     54  50  86 E5        30.08S
MANITOWOC        N/A    N/A N/A N/A MISG        N/A
APPLETON       PTCLDY    59  54  82 E7        30.07S
CLINTONVILLE   PTCLDY    57  55  94 E5        30.06S FOG
OSHKOSH        PTCLDY    60  54  80 SE8       30.05S HAZE
$$

WIZ032>034-041-042-053>061-070500-
SOUTHWEST WISCONSIN

CITY           SKY/WX    TMP DP  RH WIND       PRES   REMARKS
LA CROSSE      CLOUDY    68  59  73 S8        29.95F
SPARTA         MOCLDY    63  61  94 CALM      29.99F
VIROQUA        CLOUDY    66  58  74 SE8       30.00F
BOSCOBEL       CLOUDY    65  59  81 NE3       29.99S
PRAIRIE DU CHI CLOUDY    65  57  75 E5        29.97F
PLATTEVILLE    CLOUDY    65  60  84 E6        30.00F
$$

WIZ056-057-062-063-064-067-068-070500-
SOUTH CENTRAL WISCONSIN

CITY           SKY/WX    TMP DP  RH WIND       PRES   REMARKS
REEDSBURG      PTCLDY    66  62  85 SE3       30.01S
BARABOO/DELLS  CLEAR     62  57  83 E5        30.03S HAZE
LONE ROCK      CLOUDY    65  59  81 E3        30.00S
MINERAL POINT  MOCLDY    64  59  82 SE5       30.02S
MADISON        PTCLDY    65  58  78 SE13      30.03R HAZE
MIDDLETON      PTCLDY    65  59  82 CALM      30.04S
WATERTOWN      PTCLDY    58  58 100 SE6       30.04F FOG
MONROE         PTCLDY    64  59  82 SE7       30.03F
JANESVILLE     CLEAR     61  59  94 SE8       30.03S FOG
$$

WIZ051-052-058>065-066-070>072-070500-
SOUTHEAST WISCONSIN

CITY           SKY/WX    TMP DP  RH WIND       PRES   REMARKS
MILWAUKEE      FOG       46  44  93 N3        30.10S VSB 1/8
WAUKESHA       MOCLDY    50  46  87 E5        30.09S FOG
MILWAUKEE/TIMM FOG       46  45  93 E5        30.09F VSB 1/4
RACINE         FOG       47  45  93 N3        30.10S VSB 1/4
BURLINGTON     CLOUDY    53  52  98 CALM      30.08S FOG
KENOSHA        FOG       48  48 100 E5        30.08F VSB 1/2
FOND DU LAC    PTCLDY    58  53  84 SE13      30.05S
SHEBOYGAN      FOG       45  44  97 CALM      30.09S VSB 1/4
WEST BEND      FOG       50  50 100 SE3       30.08F VSB 1/4
JUNEAU         MOCLDY    58  55  88 E9        30.06S FOG
$$

LSZ147-162-070500-
LAKE SUPERIOR

STATION/POSITION TIME  TEMP    WIND        PRES    WAVE
                       AIR SEA DIR/SP/G            HT/PER
                 (UTC) (F)     (DEG/KT/KT) (MB)    (FT/S)
W MID LAKE BUOY  0350   43 35  110/ 10/ 12 1015.4F   1/ 3
DEVILS ISLAND    0400   43     110/  9/  9 1014.8F
PORT WING        0300   40      30/ 11/ 13 1014.2S
SAXON HARBOR     0340   46      CALM  /  3 1013.9F
$$

LMZ867-665-643>646-070500-
LAKE MICHIGAN

STATION/POSITION TIME  TEMP    WIND        PRES    WAVE
                       AIR SEA DIR/SP/G            HT/PER
                 (UTC) (F)     (DEG/KT/KT) (MB)    (FT/S)
CHAMBERS ISLAND  0300   51      90/  3/  4 1019.3F
NORTHPORT PIER   0300   49     150/  3/  5 1019.3F
SISTER BAY       0302   49        CALM       N/A
KEWAUNEE LAKESHO 0300   46      CALM  /  1 1018.4F
SHEBOYGAN LAKESH 0400   48     290/  1/  2 1019.5F
PORT WASHINGTON  0340   45     350/  2/  3 1019.6S
ATWATER BUOY     0300   42      10/  6/  6 1020.2F
MILWAUKEE LAKESH 0300   44      40/  7/  7   N/A
KENOSHA   LAKESH 0400   45      20/  3/  3 1019.0S
$$

TC  - TEMPERATURE IN CELSIUS
VSB - VISIBILITY IN STATUTE MILES
WCI - WIND CHILL INDEX
HX  - HEAT INDEX



USA.gov is the U.S. government's official web portal to all federal, state and local government web resources and services.